Time,TemperatureF,DewpointF,PressureIn,WindDirection,WindDirectionDegrees,WindSpeedMPH,WindSpeedGustMPH,Humidity,HourlyPrecipIn,Conditions,Clouds,dailyrainin,SolarRadiationWatts/m^2,SoftwareType,DateUTC
2013-07-21 00:01:00,73.7,70.3,29.84,North,355,0.0,0.0,89,0.00,,CLR,0.00,0.00,VWS V14.01,2013-07-21 04:01:00,
2013-07-21 00:02:00,73.7,70.3,29.84,North,355,0.0,0.0,89,0.00,,CLR,0.00,0.00,VWS V14.01,2013-07-21 04:02:00,
2013-07-21 00:03:00,73.6,70.2,29.84,North,355,0.0,0.0,89,0.00,,CLR,0.00,0.00,VWS V14.01,2013-07-21 04:03:00,
2013-07-21 00:08:00,73.6,70.5,29.84,North,355,0.0,0.0,90,0.00,,CLR,0.00,0.00,VWS V14.01,2013-07-21 04:08:00,
2013-07-21 00:13:00,73.5,70.4,29.85,North,355,0.0,0.0,90,0.00,,CLR,0.00,0.00,VWS V14.01,2013-07-21 04:13:00,
2013-07-21 00:18:00,73.4,70.3,29.85,North,355,0.0,0.0,90,0.00,,CLR,0.00,0.00,VWS V14.01,2013-07-21 04:18:00,
2013-07-21 00:23:00,73.4,70.3,29.84,North,355,0.0,0.0,90,0.00,,CLR,0.00,0.00,VWS V14.01,2013-07-21 04:23:00,
2013-07-21 00:28:00,73.3,70.2,29.85,North,355,0.0,0.0,90,0.00,,CLR,0.00,0.00,VWS V14.01,2013-07-21 04:28:00,
2013-07-21 00:33:00,73.2,70.1,29.86,North,355,0.0,0.0,90,0.00,,CLR,0.00,0.00,VWS V14.01,2013-07-21 04:33:00,
2013-07-21 00:38:00,73.1,70.0,29.86,North,355,0.0,0.0,90,0.00,,CLR,0.00,0.00,VWS V14.01,2013-07-21 04:38:00,
2013-07-21 00:43:00,73.0,69.9,29.86,North,355,0.0,0.0,90,0.00,,CLR,0.00,0.00,VWS V14.01,2013-07-21 04:43:00,
2013-07-21 00:49:00,72.8,69.7,29.86,North,355,0.0,1.0,90,0.00,,CLR,0.00,0.00,VWS V14.01,2013-07-21 04:49:00,
2013-07-21 00:54:00,72.7,69.3,29.86,North,355,1.0,1.0,89,0.00,,CLR,0.00,0.00,VWS V14.01,2013-07-21 04:54:00,
2013-07-21 00:59:00,72.6,69.2,29.86,North,355,0.0,1.0,89,0.00,,CLR,0.00,0.00,VWS V14.01,2013-07-21 04:59:00,
2013-07-21 01:04:00,72.7,68.9,29.85,North,355,0.0,0.0,88,0.00,,CLR,0.00,0.00,VWS V14.01,2013-07-21 05:04:00,
2013-07-21 01:09:00,72.8,68.7,29.85,North,355,0.0,0.0,87,0.00,,CLR,0.00,0.00,VWS V14.01,2013-07-21 05:09:00,
2013-07-21 01:14:00,73.0,68.9,29.86,North,355,0.0,0.0,87,0.00,,CLR,0.00,0.00,VWS V14.01,2013-07-21 05:14:00,
2013-07-21 01:19:00,73.1,68.7,29.86,North,355,0.0,0.0,86,0.00,,CLR,0.00,0.00,VWS V14.01,2013-07-21 05:19:00,
2013-07-21 01:24:00,73.2,68.8,29.86,North,355,0.0,0.0,86,0.00,,CLR,0.00,0.00,VWS V14.01,2013-07-21 05:24:00,
2013-07-21 01:29:00,73.3,68.9,29.86,North,355,0.0,0.0,86,0.00,,CLR,0.00,0.00,VWS V14.01,2013-07-21 05:29:00,
2013-07-21 01:35:00,73.3,68.9,29.86,North,355,0.0,0.0,86,0.00,,CLR,0.00,0.00,VWS V14.01,2013-07-21 05:35:00,
2013-07-21 01:40:00,73.2,68.8,29.87,North,355,0.0,0.0,86,0.00,,CLR,0.00,0.00,VWS V14.01,2013-07-21 05:40:00,
2013-07-21 01:45:00,73.1,68.7,29.86,North,355,0.0,0.0,86,0.00,,CLR,0.00,0.00,VWS V14.01,2013-07-21 05:45:00,
2013-07-21 01:50:00,73.0,68.6,29.87,North,355,0.0,0.0,86,0.00,,CLR,0.00,0.00,VWS V14.01,2013-07-21 05:50:00,
2013-07-21 01:55:00,72.8,68.4,29.87,North,355,0.0,0.0,86,0.00,,CLR,0.00,0.00,VWS V14.01,2013-07-21 05:55:00,
2013-07-21 02:00:00,72.6,68.2,29.86,North,355,0.0,0.0,86,0.00,,CLR,0.00,0.00,VWS V14.01,2013-07-21 06:00:00,
2013-07-21 02:05:00,72.5,67.7,29.86,North,355,0.0,0.0,85,0.00,,CLR,0.00,0.00,VWS V14.01,2013-07-21 06:05:00,
2013-07-21 02:10:00,72.5,67.7,29.86,North,355,0.0,0.0,85,0.00,,CLR,0.00,0.00,VWS V14.01,2013-07-21 06:10:00,
2013-07-21 02:15:00,72.5,67.4,29.86,North,355,0.0,1.0,84,0.00,,CLR,0.00,0.00,VWS V14.01,2013-07-21 06:15:00,
2013-07-21 02:20:00,72.7,67.2,29.86,North,355,0.0,1.0,83,0.00,,CLR,0.00,0.00,VWS V14.01,2013-07-21 06:20:00,
2013-07-21 02:26:00,73.0,67.2,29.86,North,355,0.0,0.0,82,0.00,,CLR,0.00,0.00,VWS V14.01,2013-07-21 06:26:00,
2013-07-21 02:31:00,73.2,67.4,29.86,North,355,0.0,0.0,82,0.00,,CLR,0.00,0.00,VWS V14.01,2013-07-21 06:31:00,
2013-07-21 02:36:00,73.3,67.5,29.86,North,355,0.0,0.0,82,0.00,,CLR,0.00,0.00,VWS V14.01,2013-07-21 06:36:00,
2013-07-21 02:41:00,73.3,67.5,29.86,North,355,0.0,0.0,82,0.00,,CLR,0.00,0.00,VWS V14.01,2013-07-21 06:41:00,
2013-07-21 02:46:00,73.3,67.5,29.86,North,355,0.0,0.0,82,0.00,,CLR,0.00,0.00,VWS V14.01,2013-07-21 06:46:00,
2013-07-21 02:51:00,73.2,67.4,29.86,North,355,0.0,0.0,82,0.00,,CLR,0.00,0.00,VWS V14.01,2013-07-21 06:51:00,
2013-07-21 02:56:00,73.2,67.7,29.86,North,355,0.0,0.0,83,0.00,,CLR,0.00,0.00,VWS V14.01,2013-07-21 06:56:00,
2013-07-21 03:01:00,73.1,67.6,29.86,North,355,0.0,0.0,83,0.00,,CLR,0.00,0.00,VWS V14.01,2013-07-21 07:01:00,
2013-07-21 03:06:00,73.1,68.0,29.86,North,355,0.0,0.0,84,0.00,,CLR,0.00,0.00,VWS V14.01,2013-07-21 07:06:00,
2013-07-21 03:11:00,73.0,67.9,29.86,North,355,0.0,0.0,84,0.00,,CLR,0.00,0.00,VWS V14.01,2013-07-21 07:11:00,
2013-07-21 03:16:00,72.9,67.8,29.86,North,355,0.0,0.0,84,0.00,,CLR,0.00,0.00,VWS V14.01,2013-07-21 07:16:00,
2013-07-21 03:22:00,72.8,67.7,29.86,North,355,0.0,0.0,84,0.00,,CLR,0.00,0.00,VWS V14.01,2013-07-21 07:22:00,
2013-07-21 03:27:00,72.6,67.8,29.86,North,355,0.0,0.0,85,0.00,,CLR,0.00,0.00,VWS V14.01,2013-07-21 07:27:00,
2013-07-21 03:32:00,72.5,68.1,29.86,North,355,0.0,0.0,86,0.00,,CLR,0.00,0.00,VWS V14.01,2013-07-21 07:32:00,
2013-07-21 03:37:00,72.4,68.0,29.86,North,355,0.0,0.0,86,0.00,,CLR,0.00,0.00,VWS V14.01,2013-07-21 07:37:00,
2013-07-21 03:42:00,72.2,67.8,29.86,North,355,0.0,0.0,86,0.00,,CLR,0.00,0.00,VWS V14.01,2013-07-21 07:42:00,
2013-07-21 03:47:00,72.1,67.7,29.86,North,355,0.0,0.0,86,0.00,,CLR,0.00,0.00,VWS V14.01,2013-07-21 07:47:00,
2013-07-21 03:52:00,72.0,67.6,29.86,North,355,0.0,0.0,86,0.00,,CLR,0.00,0.00,VWS V14.01,2013-07-21 07:52:00,
2013-07-21 03:57:00,71.9,67.8,29.85,North,355,0.0,0.0,87,0.00,,CLR,0.00,0.00,VWS V14.01,2013-07-21 07:57:00,
2013-07-21 04:02:00,71.9,68.2,29.85,North,355,0.0,0.0,88,0.00,,CLR,0.00,0.00,VWS V14.01,2013-07-21 08:02:00,
2013-07-21 04:07:00,71.8,68.4,29.85,North,355,0.0,0.0,89,0.00,,CLR,0.00,0.00,VWS V14.01,2013-07-21 08:07:00,
2013-07-21 04:13:00,71.8,68.4,29.86,North,355,0.0,0.0,89,0.00,,CLR,0.00,0.00,VWS V14.01,2013-07-21 08:13:00,
2013-07-21 04:18:00,71.7,68.3,29.86,North,355,0.0,0.0,89,0.00,,CLR,0.00,0.00,VWS V14.01,2013-07-21 08:18:00,
2013-07-21 04:23:00,71.6,68.2,29.86,North,355,0.0,1.0,89,0.00,,CLR,0.00,0.00,VWS V14.01,2013-07-21 08:23:00,
2013-07-21 04:28:00,71.7,68.3,29.86,North,355,0.0,0.0,89,0.00,,CLR,0.00,0.00,VWS V14.01,2013-07-21 08:28:00,
2013-07-21 04:33:00,71.7,68.3,29.86,North,355,0.0,0.0,89,0.00,,CLR,0.00,0.00,VWS V14.01,2013-07-21 08:33:00,
2013-07-21 04:38:00,71.7,68.3,29.86,North,355,0.0,0.0,89,0.00,,CLR,0.00,0.00,VWS V14.01,2013-07-21 08:38:00,
2013-07-21 04:43:00,71.7,68.3,29.86,North,355,0.0,0.0,89,0.00,,CLR,0.00,0.00,VWS V14.01,2013-07-21 08:43:00,
2013-07-21 04:48:00,71.7,68.6,29.86,North,355,0.0,0.0,90,0.00,,CLR,0.00,0.00,VWS V14.01,2013-07-21 08:48:00,
2013-07-21 04:54:00,71.7,68.6,29.86,North,355,0.0,0.0,90,0.00,,CLR,0.00,0.00,VWS V14.01,2013-07-21 08:54:00,
2013-07-21 04:59:00,71.6,68.5,29.86,North,355,0.0,1.0,90,0.00,,CLR,0.00,0.00,VWS V14.01,2013-07-21 08:59:00,
2013-07-21 05:04:00,71.5,68.4,29.86,North,355,1.0,1.0,90,0.00,,CLR,0.00,0.00,VWS V14.01,2013-07-21 09:04:00,
2013-07-21 05:09:00,71.4,68.3,29.86,North,355,0.0,1.0,90,0.00,,CLR,0.00,0.00,VWS V14.01,2013-07-21 09:09:00,
2013-07-21 05:14:00,71.4,68.3,29.86,North,355,0.0,0.0,90,0.00,,CLR,0.00,0.00,VWS V14.01,2013-07-21 09:14:00,
2013-07-21 05:19:00,71.3,68.2,29.86,North,355,1.0,1.0,90,0.00,,CLR,0.00,0.00,VWS V14.01,2013-07-21 09:19:00,
2013-07-21 05:24:00,71.3,68.2,29.87,North,355,0.0,0.0,90,0.00,,CLR,0.00,0.00,VWS V14.01,2013-07-21 09:24:00,
2013-07-21 05:29:00,71.3,68.2,29.87,North,355,0.0,0.0,90,0.00,,CLR,0.00,0.00,VWS V14.01,2013-07-21 09:29:00,
2013-07-21 05:34:00,71.3,68.2,29.86,North,355,0.0,0.0,90,0.00,,CLR,0.00,0.00,VWS V14.01,2013-07-21 09:34:00,
2013-07-21 05:40:00,71.2,68.1,29.86,North,355,0.0,0.0,90,0.00,,CLR,0.00,0.00,VWS V14.01,2013-07-21 09:40:00,
2013-07-21 05:45:00,71.1,68.0,29.87,North,355,0.0,1.0,90,0.00,,CLR,0.00,0.00,VWS V14.01,2013-07-21 09:45:00,
2013-07-21 05:50:00,71.0,68.2,29.87,North,355,0.0,1.0,91,0.00,,CLR,0.00,0.00,VWS V14.01,2013-07-21 09:50:00,
2013-07-21 05:55:00,70.8,68.1,29.87,North,355,0.0,0.0,91,0.00,,CLR,0.00,0.00,VWS V14.01,2013-07-21 09:55:00,
2013-07-21 06:00:00,70.7,67.9,29.87,North,355,0.0,0.0,91,0.00,,CLR,0.00,0.00,VWS V14.01,2013-07-21 10:00:00,
2013-07-21 06:05:00,70.6,67.8,29.87,North,355,0.0,0.0,91,0.00,,CLR,0.00,5.00,VWS V14.01,2013-07-21 10:05:00,
2013-07-21 06:10:00,70.6,67.8,29.87,North,355,0.0,0.0,91,0.00,,CLR,0.00,11.00,VWS V14.01,2013-07-21 10:10:00,
2013-07-21 06:15:00,70.4,67.7,29.87,North,355,0.0,0.0,91,0.00,,CLR,0.00,14.00,VWS V14.01,2013-07-21 10:15:00,
2013-07-21 06:20:00,70.4,67.7,29.87,North,355,0.0,0.0,91,0.00,,CLR,0.00,16.00,VWS V14.01,2013-07-21 10:20:00,
2013-07-21 06:25:00,70.3,67.6,29.87,North,355,0.0,0.0,91,0.00,,CLR,0.00,18.00,VWS V14.01,2013-07-21 10:25:00,
2013-07-21 06:30:00,70.3,67.6,29.88,North,355,0.0,0.0,91,0.00,,CLR,0.00,21.00,VWS V14.01,2013-07-21 10:30:00,
2013-07-21 06:35:00,70.3,67.9,29.88,North,355,0.0,0.0,92,0.00,,CLR,0.00,23.00,VWS V14.01,2013-07-21 10:35:00,
2013-07-21 06:40:00,70.3,67.9,29.88,North,355,0.0,0.0,92,0.00,,CLR,0.00,21.00,VWS V14.01,2013-07-21 10:40:00,
2013-07-21 06:45:00,70.4,68.0,29.88,North,355,0.0,0.0,92,0.00,,CLR,0.00,23.00,VWS V14.01,2013-07-21 10:45:00,
2013-07-21 06:51:00,70.4,68.0,29.88,North,355,0.0,0.0,92,0.00,,CLR,0.00,25.00,VWS V14.01,2013-07-21 10:51:00,
2013-07-21 06:56:00,70.4,68.3,29.88,North,355,0.0,0.0,93,0.00,,CLR,0.00,28.00,VWS V14.01,2013-07-21 10:56:00,
2013-07-21 07:01:00,70.5,68.4,29.88,North,355,0.0,0.0,93,0.00,,CLR,0.00,32.00,VWS V14.01,2013-07-21 11:01:00,
2013-07-21 07:06:00,70.5,68.4,29.88,North,355,0.0,0.0,93,0.00,,CLR,0.00,39.00,VWS V14.01,2013-07-21 11:06:00,
2013-07-21 07:11:00,70.6,68.5,29.88,North,355,0.0,0.0,93,0.00,,CLR,0.00,46.00,VWS V14.01,2013-07-21 11:11:00,
2013-07-21 07:16:00,70.7,68.6,29.88,North,355,0.0,0.0,93,0.00,,CLR,0.00,53.00,VWS V14.01,2013-07-21 11:16:00,
2013-07-21 07:21:00,70.8,68.7,29.88,North,355,0.0,0.0,93,0.00,,CLR,0.00,63.00,VWS V14.01,2013-07-21 11:21:00,
2013-07-21 07:26:00,70.9,68.8,29.88,North,355,0.0,0.0,93,0.00,,CLR,0.00,74.00,VWS V14.01,2013-07-21 11:26:00,
2013-07-21 07:31:00,71.0,68.9,29.88,North,355,0.0,0.0,93,0.00,,CLR,0.00,79.00,VWS V14.01,2013-07-21 11:31:00,
2013-07-21 07:36:00,71.1,69.0,29.89,North,355,0.0,1.0,93,0.00,,CLR,0.00,90.00,VWS V14.01,2013-07-21 11:36:00,
2013-07-21 07:42:00,71.3,69.2,29.89,North,355,0.0,0.0,93,0.00,,CLR,0.00,90.00,VWS V14.01,2013-07-21 11:42:00,
2013-07-21 07:47:00,71.4,69.3,29.89,North,355,0.0,0.0,93,0.00,,CLR,0.00,174.00,VWS V14.01,2013-07-21 11:47:00,
2013-07-21 07:52:00,71.7,69.6,29.89,North,355,0.0,0.0,93,0.00,,CLR,0.00,221.00,VWS V14.01,2013-07-21 11:52:00,
2013-07-21 07:57:00,71.9,69.8,29.89,North,355,0.0,0.0,93,0.00,,CLR,0.00,260.00,VWS V14.01,2013-07-21 11:57:00,
2013-07-21 08:02:00,72.2,69.8,29.89,North,355,0.0,0.0,92,0.00,,CLR,0.00,93.00,VWS V14.01,2013-07-21 12:02:00,
2013-07-21 08:07:00,72.4,69.6,29.89,North,355,0.0,0.0,91,0.00,,CLR,0.00,111.00,VWS V14.01,2013-07-21 12:07:00,
2013-07-21 08:12:00,72.6,69.8,29.89,North,355,0.0,0.0,91,0.00,,CLR,0.00,76.00,VWS V14.01,2013-07-21 12:12:00,
2013-07-21 08:17:00,72.9,70.1,29.89,North,355,0.0,1.0,91,0.00,,CLR,0.00,234.00,VWS V14.01,2013-07-21 12:17:00,
2013-07-21 08:22:00,73.7,70.6,29.90,North,355,0.0,0.0,90,0.00,,CLR,0.00,279.00,VWS V14.01,2013-07-21 12:22:00,
2013-07-21 08:27:00,74.5,70.7,29.90,North,355,0.0,0.0,88,0.00,,CLR,0.00,267.00,VWS V14.01,2013-07-21 12:27:00,
2013-07-21 08:32:00,74.9,70.4,29.90,North,355,0.0,1.0,86,0.00,,CLR,0.00,151.00,VWS V14.01,2013-07-21 12:32:00,
2013-07-21 08:38:00,75.2,70.4,29.90,North,355,0.0,0.0,85,0.00,,CLR,0.00,216.00,VWS V14.01,2013-07-21 12:38:00,
2013-07-21 08:43:00,75.9,71.1,29.90,North,355,0.0,1.0,85,0.00,,CLR,0.00,248.00,VWS V14.01,2013-07-21 12:43:00,
2013-07-21 08:48:00,76.3,71.1,29.90,NNW,346,0.0,1.0,84,0.00,,CLR,0.00,209.00,VWS V14.01,2013-07-21 12:48:00,
2013-07-21 08:53:00,76.5,71.0,29.90,NNW,344,0.0,3.0,83,0.00,,CLR,0.00,346.00,VWS V14.01,2013-07-21 12:53:00,
2013-07-21 08:58:00,76.7,71.2,29.90,NNW,344,0.0,1.0,83,0.00,,CLR,0.00,213.00,VWS V14.01,2013-07-21 12:58:00,
2013-07-21 09:03:00,76.6,70.7,29.89,NNW,344,0.0,0.0,82,0.00,,CLR,0.00,188.00,VWS V14.01,2013-07-21 13:03:00,
2013-07-21 09:08:00,76.6,70.7,29.89,NNW,344,0.0,1.0,82,0.00,,CLR,0.00,149.00,VWS V14.01,2013-07-21 13:08:00,
2013-07-21 09:13:00,76.5,70.2,29.90,NNW,344,0.0,0.0,81,0.00,,CLR,0.00,139.00,VWS V14.01,2013-07-21 13:13:00,
2013-07-21 09:18:00,76.5,70.6,29.89,NNW,344,1.0,2.0,82,0.00,,CLR,0.00,199.00,VWS V14.01,2013-07-21 13:18:00,
2013-07-21 09:23:00,76.5,70.6,29.89,NNW,346,0.0,3.0,82,0.00,,CLR,0.00,162.00,VWS V14.01,2013-07-21 13:23:00,
2013-07-21 09:29:00,76.5,70.6,29.89,NNW,346,0.0,1.0,82,0.00,,CLR,0.00,111.00,VWS V14.01,2013-07-21 13:29:00,
2013-07-21 09:34:00,76.4,70.1,29.90,NNW,345,0.0,1.0,81,0.00,,CLR,0.00,188.00,VWS V14.01,2013-07-21 13:34:00,
2013-07-21 09:39:00,76.7,71.2,29.90,NNW,346,0.0,1.0,83,0.00,,CLR,0.00,524.00,VWS V14.01,2013-07-21 13:39:00,
2013-07-21 09:44:00,77.3,70.7,29.89,NNW,346,0.0,1.0,80,0.00,,CLR,0.00,343.00,VWS V14.01,2013-07-21 13:44:00,
2013-07-21 09:49:00,77.6,71.3,29.90,NNW,344,4.0,5.0,81,0.00,,CLR,0.00,308.00,VWS V14.01,2013-07-21 13:49:00,
2013-07-21 09:50:00,77.6,70.6,29.90,NNW,338,1.0,5.0,79,0.00,,CLR,0.00,302.00,VWS V14.01,2013-07-21 13:50:00,
2013-07-21 10:00:00,78.4,71.0,29.90,NNW,348,3.0,3.0,78,0.00,,CLR,0.00,636.00,VWS V14.01,2013-07-21 14:00:00,
2013-07-21 10:05:00,78.8,71.4,29.90,NNW,338,1.0,2.0,78,0.00,,CLR,0.00,330.00,VWS V14.01,2013-07-21 14:05:00,
2013-07-21 10:38:00,79.4,71.2,29.90,NNW,338,1.0,3.0,76,0.00,,CLR,0.00,335.00,VWS V14.01,2013-07-21 14:38:00,
2013-07-21 10:46:00,79.9,71.7,29.90,NW,305,0.0,0.0,76,0.00,,CLR,0.00,336.00,VWS V14.01,2013-07-21 14:46:00,
2013-07-21 10:51:00,80.0,71.8,29.90,WNW,303,0.0,2.0,76,0.00,,CLR,0.00,264.00,VWS V14.01,2013-07-21 14:51:00,
2013-07-21 10:56:00,80.0,71.4,29.90,NW,311,0.0,3.0,75,0.00,,CLR,0.00,295.00,VWS V14.01,2013-07-21 14:56:00,
2013-07-21 11:02:00,80.5,71.8,29.90,NW,312,0.0,1.0,75,0.00,,CLR,0.00,617.00,VWS V14.01,2013-07-21 15:02:00,
2013-07-21 11:07:00,81.2,71.7,29.90,NW,312,0.0,1.0,73,0.00,,CLR,0.00,628.00,VWS V14.01,2013-07-21 15:07:00,
2013-07-21 11:12:00,81.9,72.4,29.91,NW,313,1.0,1.0,73,0.00,,CLR,0.00,726.00,VWS V14.01,2013-07-21 15:12:00,
2013-07-21 11:17:00,82.5,72.2,29.90,ENE,73,0.0,2.0,71,0.00,,CLR,0.00,645.00,VWS V14.01,2013-07-21 15:17:00,
2013-07-21 11:22:00,82.7,72.3,29.90,South,180,0.0,1.0,71,0.00,,CLR,0.00,383.00,VWS V14.01,2013-07-21 15:22:00,
2013-07-21 11:27:00,83.0,73.1,29.90,SSW,207,0.0,6.0,72,0.00,,CLR,0.00,487.00,VWS V14.01,2013-07-21 15:27:00,
2013-07-21 11:32:00,83.1,72.7,29.91,NW,311,1.0,5.0,71,0.00,,CLR,0.00,413.00,VWS V14.01,2013-07-21 15:32:00,
2013-07-21 11:37:00,83.0,72.2,29.90,NW,311,0.0,5.0,70,0.00,,CLR,0.00,485.00,VWS V14.01,2013-07-21 15:37:00,
2013-07-21 11:42:00,82.9,72.1,29.90,NW,323,0.0,4.0,70,0.00,,CLR,0.00,385.00,VWS V14.01,2013-07-21 15:42:00,
2013-07-21 11:47:00,82.7,72.8,29.90,NW,323,0.0,1.0,72,0.00,,CLR,0.00,352.00,VWS V14.01,2013-07-21 15:47:00,
2013-07-21 11:53:00,82.7,72.3,29.90,SSE,150,3.0,3.0,71,0.00,,CLR,0.00,418.00,VWS V14.01,2013-07-21 15:53:00,
2013-07-21 11:58:00,82.6,71.8,29.90,SSE,152,0.0,1.0,70,0.00,,CLR,0.00,464.00,VWS V14.01,2013-07-21 15:58:00,
2013-07-21 12:03:00,83.2,73.2,29.90,South,186,0.0,1.0,72,0.00,,CLR,0.00,504.00,VWS V14.01,2013-07-21 16:03:00,
2013-07-21 12:08:00,83.4,72.2,29.90,WNW,303,0.0,1.0,69,0.00,,CLR,0.00,360.00,VWS V14.01,2013-07-21 16:08:00,
2013-07-21 12:13:00,83.3,72.9,29.90,WNW,303,1.0,1.0,71,0.00,,CLR,0.00,288.00,VWS V14.01,2013-07-21 16:13:00,
2013-07-21 12:18:00,83.2,72.4,29.90,NNW,337,1.0,3.0,70,0.00,,CLR,0.00,251.00,VWS V14.01,2013-07-21 16:18:00,
2013-07-21 12:23:00,83.0,72.6,29.90,NNW,330,1.0,4.0,71,0.00,,CLR,0.00,287.00,VWS V14.01,2013-07-21 16:23:00,
2013-07-21 12:28:00,82.8,72.4,29.90,North,9,2.0,4.0,71,0.00,,CLR,0.00,359.00,VWS V14.01,2013-07-21 16:28:00,
2013-07-21 12:33:00,82.7,72.3,29.90,North,360,0.0,1.0,71,0.00,,CLR,0.00,339.00,VWS V14.01,2013-07-21 16:33:00,
2013-07-21 12:39:00,82.7,72.8,29.90,North,360,0.0,1.0,72,0.00,,CLR,0.00,415.00,VWS V14.01,2013-07-21 16:39:00,
2013-07-21 12:44:00,82.9,72.5,29.91,North,360,0.0,1.0,71,0.00,,CLR,0.00,476.00,VWS V14.01,2013-07-21 16:44:00,
2013-07-21 12:49:00,83.2,73.2,29.91,NNE,32,0.0,5.0,72,0.00,,CLR,0.00,455.00,VWS V14.01,2013-07-21 16:49:00,
2013-07-21 12:54:00,83.3,72.5,29.91,NNW,329,3.0,7.0,70,0.00,,CLR,0.00,568.00,VWS V14.01,2013-07-21 16:54:00,
2013-07-21 12:59:00,83.4,72.2,29.91,North,9,0.0,5.0,69,0.00,,CLR,0.00,461.00,VWS V14.01,2013-07-21 16:59:00,
2013-07-21 13:04:00,83.4,72.2,29.91,NNW,329,1.0,4.0,69,0.00,,CLR,0.00,443.00,VWS V14.01,2013-07-21 17:04:00,
2013-07-21 13:09:00,83.2,72.8,29.91,NNW,329,0.0,1.0,71,0.00,,CLR,0.00,420.00,VWS V14.01,2013-07-21 17:09:00,
2013-07-21 13:14:00,83.3,72.9,29.90,NW,312,1.0,3.0,71,0.00,,CLR,0.00,411.00,VWS V14.01,2013-07-21 17:14:00,
2013-07-21 13:19:00,83.5,72.7,29.90,NNW,348,4.0,4.0,70,0.00,,CLR,0.00,404.00,VWS V14.01,2013-07-21 17:19:00,
2013-07-21 13:24:00,83.3,72.5,29.90,NW,321,0.0,0.0,70,0.00,,CLR,0.00,390.00,VWS V14.01,2013-07-21 17:24:00,
2013-07-21 13:29:00,83.4,72.6,29.90,NW,319,1.0,1.0,70,0.00,,CLR,0.00,348.00,VWS V14.01,2013-07-21 17:29:00,
2013-07-21 13:34:00,83.2,72.0,29.90,NW,321,0.0,0.0,69,0.00,,CLR,0.00,318.00,VWS V14.01,2013-07-21 17:34:00,
2013-07-21 13:39:00,83.2,73.2,29.89,NW,321,0.0,0.0,72,0.00,,CLR,0.00,443.00,VWS V14.01,2013-07-21 17:39:00,
2013-07-21 13:44:00,83.4,73.0,29.89,NNW,330,0.0,1.0,71,0.00,,CLR,0.00,332.00,VWS V14.01,2013-07-21 17:44:00,
2013-07-21 13:49:00,83.3,72.5,29.89,NNW,330,0.0,0.0,70,0.00,,CLR,0.00,272.00,VWS V14.01,2013-07-21 17:49:00,
2013-07-21 13:55:00,83.0,72.6,29.89,NNW,330,0.0,0.0,71,0.00,,CLR,0.00,239.00,VWS V14.01,2013-07-21 17:55:00,
2013-07-21 14:00:00,82.8,72.9,29.89,NNW,330,0.0,0.0,72,0.00,,CLR,0.00,248.00,VWS V14.01,2013-07-21 18:00:00,
2013-07-21 14:05:00,82.9,73.4,29.89,NNW,348,0.0,0.0,73,0.00,,CLR,0.00,323.00,VWS V14.01,2013-07-21 18:05:00,
2013-07-21 14:10:00,82.9,72.9,29.90,NNW,348,0.0,0.0,72,0.00,,CLR,0.00,232.00,VWS V14.01,2013-07-21 18:10:00,
2013-07-21 14:15:00,82.9,72.5,29.89,NNW,348,0.0,3.0,71,0.00,,CLR,0.00,225.00,VWS V14.01,2013-07-21 18:15:00,
2013-07-21 14:20:00,82.8,72.9,29.89,NNW,329,2.0,2.0,72,0.00,,CLR,0.00,257.00,VWS V14.01,2013-07-21 18:20:00,
2013-07-21 14:25:00,82.7,72.8,29.89,North,355,0.0,2.0,72,0.00,,CLR,0.00,322.00,VWS V14.01,2013-07-21 18:25:00,
2013-07-21 14:30:00,82.7,73.2,29.89,NNE,19,3.0,4.0,73,0.00,,CLR,0.00,387.00,VWS V14.01,2013-07-21 18:30:00,
2013-07-21 14:35:00,82.7,73.6,29.89,NNW,348,2.0,4.0,74,0.00,,CLR,0.00,383.00,VWS V14.01,2013-07-21 18:35:00,
2013-07-21 14:41:00,82.7,73.6,29.89,North,360,0.0,1.0,74,0.00,,CLR,0.00,406.00,VWS V14.01,2013-07-21 18:41:00,
2013-07-21 14:46:00,82.7,72.8,29.89,North,350,0.0,3.0,72,0.00,,CLR,0.00,385.00,VWS V14.01,2013-07-21 18:46:00,
2013-07-21 14:51:00,82.8,72.9,29.89,North,360,0.0,1.0,72,0.00,,CLR,0.00,367.00,VWS V14.01,2013-07-21 18:51:00,
2013-07-21 14:56:00,82.9,72.9,29.89,North,360,0.0,0.0,72,0.00,,CLR,0.00,490.00,VWS V14.01,2013-07-21 18:56:00,
2013-07-21 15:01:00,83.3,72.9,29.89,North,9,1.0,3.0,71,0.00,,CLR,0.00,487.00,VWS V14.01,2013-07-21 19:01:00,
2013-07-21 15:06:00,83.6,73.2,29.88,North,360,0.0,1.0,71,0.00,,CLR,0.00,524.00,VWS V14.01,2013-07-21 19:06:00,
2013-07-21 15:11:00,84.0,72.3,29.88,NNW,348,0.0,1.0,68,0.00,,CLR,0.00,490.00,VWS V14.01,2013-07-21 19:11:00,
2013-07-21 15:16:00,84.2,73.4,29.88,NW,312,0.0,3.0,70,0.00,,CLR,0.00,338.00,VWS V14.01,2013-07-21 19:16:00,
2013-07-21 15:21:00,84.2,72.9,29.88,NW,325,2.0,3.0,69,0.00,,CLR,0.00,271.00,VWS V14.01,2013-07-21 19:21:00,
2013-07-21 15:27:00,83.9,72.2,29.88,NW,325,0.0,0.0,68,0.00,,CLR,0.00,260.00,VWS V14.01,2013-07-21 19:27:00,
2013-07-21 15:32:00,83.6,71.1,29.88,NNW,342,0.0,1.0,66,0.00,,CLR,0.00,244.00,VWS V14.01,2013-07-21 19:32:00,
2013-07-21 15:37:00,83.5,71.8,29.88,NNW,342,0.0,1.0,68,0.00,,CLR,0.00,251.00,VWS V14.01,2013-07-21 19:37:00,
2013-07-21 15:42:00,83.4,71.7,29.88,NNW,342,0.0,1.0,68,0.00,,CLR,0.00,246.00,VWS V14.01,2013-07-21 19:42:00,
2013-07-21 15:47:00,83.2,71.6,29.88,NNW,342,1.0,1.0,68,0.00,,CLR,0.00,207.00,VWS V14.01,2013-07-21 19:47:00,
2013-07-21 15:52:00,83.1,71.4,29.88,NNW,342,0.0,1.0,68,0.00,,CLR,0.00,181.00,VWS V14.01,2013-07-21 19:52:00,
2013-07-21 15:57:00,83.0,72.6,29.88,NNW,342,0.0,0.0,71,0.00,,CLR,0.00,171.00,VWS V14.01,2013-07-21 19:57:00,
2013-07-21 16:02:00,82.9,72.5,29.88,NNW,341,0.0,1.0,71,0.00,,CLR,0.00,163.00,VWS V14.01,2013-07-21 20:02:00,
2013-07-21 16:07:00,82.7,72.8,29.88,NNW,341,0.0,1.0,72,0.00,,CLR,0.00,162.00,VWS V14.01,2013-07-21 20:07:00,
2013-07-21 16:12:00,82.6,73.1,29.88,NNW,342,0.0,1.0,73,0.00,,CLR,0.00,153.00,VWS V14.01,2013-07-21 20:12:00,
2013-07-21 16:18:00,82.4,72.9,29.88,NNW,342,0.0,1.0,73,0.00,,CLR,0.00,149.00,VWS V14.01,2013-07-21 20:18:00,
2013-07-21 16:23:00,82.3,73.2,29.88,NNW,342,0.0,0.0,74,0.00,,CLR,0.00,141.00,VWS V14.01,2013-07-21 20:23:00,
2013-07-21 16:32:00,82.0,74.1,29.88,NNW,341,0.0,0.0,77,0.00,,CLR,0.00,100.00,VWS V14.01,2013-07-21 20:32:00,
2013-07-21 16:37:00,81.9,74.0,29.88,NNW,342,0.0,0.0,77,0.00,,CLR,0.00,93.00,VWS V14.01,2013-07-21 20:37:00,
2013-07-21 16:42:00,81.8,74.3,29.88,NNW,341,0.0,0.0,78,0.00,,CLR,0.00,65.00,VWS V14.01,2013-07-21 20:42:00,
2013-07-21 16:47:00,81.7,74.2,29.88,NNW,341,0.0,1.0,78,0.00,,CLR,0.00,62.00,VWS V14.01,2013-07-21 20:47:00,
2013-07-21 16:52:00,81.4,73.9,29.89,SSW,203,7.0,7.0,78,0.00,,CLR,0.00,65.00,VWS V14.01,2013-07-21 20:52:00,
2013-07-21 16:57:00,80.7,73.6,29.89,SSW,194,3.0,9.0,79,0.00,,CLR,0.00,63.00,VWS V14.01,2013-07-21 20:57:00,
2013-07-21 17:02:00,79.8,73.1,29.88,South,191,4.0,7.0,80,0.00,,CLR,0.00,63.00,VWS V14.01,2013-07-21 21:02:00,
2013-07-21 17:08:00,78.9,72.6,29.88,SSW,206,2.0,8.0,81,0.00,,CLR,0.00,81.00,VWS V14.01,2013-07-21 21:08:00,
2013-07-21 17:13:00,78.3,72.4,29.88,SW,227,0.0,6.0,82,0.00,,CLR,0.00,105.00,VWS V14.01,2013-07-21 21:13:00,
2013-07-21 17:18:00,77.7,72.5,29.88,West,260,0.0,2.0,84,0.00,,CLR,0.00,121.00,VWS V14.01,2013-07-21 21:18:00,
2013-07-21 17:23:00,77.2,72.7,29.86,SSW,202,0.0,1.0,86,0.00,,CLR,0.00,120.00,VWS V14.01,2013-07-21 21:23:00,
2013-07-21 17:28:00,76.8,72.6,29.86,SSW,200,0.0,1.0,87,0.00,,CLR,0.00,113.00,VWS V14.01,2013-07-21 21:28:00,
2013-07-21 17:33:00,76.6,73.1,29.85,SSE,168,0.0,1.0,89,0.00,,CLR,0.00,102.00,VWS V14.01,2013-07-21 21:33:00,
2013-07-21 17:38:00,76.3,72.8,29.86,South,186,0.0,1.0,89,0.00,,CLR,0.00,113.00,VWS V14.01,2013-07-21 21:38:00,
2013-07-21 17:43:00,76.2,73.1,29.86,SSW,202,1.0,1.0,90,0.00,,CLR,0.00,158.00,VWS V14.01,2013-07-21 21:43:00,
2013-07-21 17:48:00,76.0,73.2,29.86,SSW,202,0.0,1.0,91,0.00,,CLR,0.00,190.00,VWS V14.01,2013-07-21 21:48:00,
2013-07-21 17:53:00,75.9,73.1,29.85,SSW,202,0.0,1.0,91,0.00,,CLR,0.00,165.00,VWS V14.01,2013-07-21 21:53:00,
2013-07-21 17:59:00,75.9,73.4,29.85,SSW,202,0.0,0.0,92,0.00,,CLR,0.00,167.00,VWS V14.01,2013-07-21 21:59:00,
2013-07-21 18:04:00,75.9,73.4,29.85,SSW,202,0.0,0.0,92,0.00,,CLR,0.00,179.00,VWS V14.01,2013-07-21 22:04:00,
2013-07-21 18:09:00,76.0,73.5,29.84,SSW,202,0.0,0.0,92,0.00,,CLR,0.00,213.00,VWS V14.01,2013-07-21 22:09:00,
2013-07-21 18:14:00,76.5,74.3,29.84,SSW,202,0.0,2.0,93,0.00,,CLR,0.00,404.00,VWS V14.01,2013-07-21 22:14:00,
2013-07-21 18:19:00,76.9,74.4,29.84,SSW,206,0.0,1.0,92,0.00,,CLR,0.00,197.00,VWS V14.01,2013-07-21 22:19:00,
2013-07-21 18:24:00,77.0,74.2,29.84,SSW,209,0.0,1.0,91,0.00,,CLR,0.00,137.00,VWS V14.01,2013-07-21 22:24:00,
2013-07-21 18:29:00,77.2,74.0,29.84,SSW,209,0.0,0.0,90,0.00,,CLR,0.00,408.00,VWS V14.01,2013-07-21 22:29:00,
2013-07-21 18:34:00,77.4,74.2,29.85,SSW,209,0.0,0.0,90,0.00,,CLR,0.00,192.00,VWS V14.01,2013-07-21 22:34:00,
2013-07-21 18:39:00,77.6,74.4,29.86,SSW,209,0.0,0.0,90,0.00,,CLR,0.00,258.00,VWS V14.01,2013-07-21 22:39:00,
2013-07-21 18:44:00,77.8,74.6,29.86,SSW,208,0.0,1.0,90,0.00,,CLR,0.00,353.00,VWS V14.01,2013-07-21 22:44:00,
2013-07-21 18:49:00,78.0,74.5,29.86,SSW,208,0.0,1.0,89,0.00,,CLR,0.00,396.00,VWS V14.01,2013-07-21 22:49:00,
2013-07-21 18:54:00,78.2,74.7,29.86,South,180,0.0,0.0,89,0.00,,CLR,0.00,258.00,VWS V14.01,2013-07-21 22:54:00,
2013-07-21 18:59:00,78.3,74.5,29.86,South,178,1.0,3.0,88,0.00,,CLR,0.00,213.00,VWS V14.01,2013-07-21 22:59:00,
2013-07-21 19:04:00,78.2,73.7,29.86,South,184,0.0,0.0,86,0.00,,CLR,0.00,105.00,VWS V14.01,2013-07-21 23:04:00,
2013-07-21 19:09:00,78.2,74.0,29.86,South,186,0.0,0.0,87,0.00,,CLR,0.00,97.00,VWS V14.01,2013-07-21 23:09:00,
2013-07-21 19:14:00,78.2,74.0,29.87,South,186,0.0,0.0,87,0.00,,CLR,0.00,93.00,VWS V14.01,2013-07-21 23:14:00,
2013-07-21 19:20:00,78.0,73.8,29.87,SSW,198,1.0,1.0,87,0.00,,CLR,0.00,98.00,VWS V14.01,2013-07-21 23:20:00,
2013-07-21 19:25:00,77.9,74.1,29.87,SSW,202,0.0,2.0,88,0.00,,CLR,0.00,100.00,VWS V14.01,2013-07-21 23:25:00,
2013-07-21 19:30:00,77.7,73.9,29.88,SSW,194,0.0,2.0,88,0.00,,CLR,0.00,172.00,VWS V14.01,2013-07-21 23:30:00,
2013-07-21 19:35:00,77.6,73.8,29.88,South,184,1.0,2.0,88,0.00,,CLR,0.00,86.00,VWS V14.01,2013-07-21 23:35:00,
2013-07-21 19:40:00,77.5,73.7,29.88,SSE,165,0.0,1.0,88,0.00,,CLR,0.00,70.00,VWS V14.01,2013-07-21 23:40:00,
2013-07-21 19:45:00,77.3,73.5,29.88,SSE,165,0.0,0.0,88,0.00,,CLR,0.00,74.00,VWS V14.01,2013-07-21 23:45:00,
2013-07-21 19:50:00,77.2,73.7,29.89,SSW,201,0.0,0.0,89,0.00,,CLR,0.00,76.00,VWS V14.01,2013-07-21 23:50:00,
2013-07-21 19:55:00,77.0,73.5,29.89,SSW,201,0.0,1.0,89,0.00,,CLR,0.00,37.00,VWS V14.01,2013-07-21 23:55:00,
2013-07-21 20:00:00,76.8,73.3,29.89,SSW,201,0.0,1.0,89,0.00,,CLR,0.00,40.00,VWS V14.01,2013-07-22 00:00:00,
2013-07-21 20:06:00,76.7,73.2,29.89,SSW,201,0.0,0.0,89,0.00,,CLR,0.00,32.00,VWS V14.01,2013-07-22 00:06:00,
2013-07-21 20:11:00,76.6,73.1,29.89,SSW,201,0.0,0.0,89,0.00,,CLR,0.00,26.00,VWS V14.01,2013-07-22 00:11:00,
2013-07-21 20:16:00,76.5,73.0,29.89,SSW,201,0.0,0.0,89,0.00,,CLR,0.00,19.00,VWS V14.01,2013-07-22 00:16:00,
2013-07-21 20:21:00,76.4,72.9,29.89,SSW,201,0.0,0.0,89,0.00,,CLR,0.00,12.00,VWS V14.01,2013-07-22 00:21:00,
2013-07-21 20:26:00,76.2,72.7,29.89,SSW,201,0.0,0.0,89,0.00,,CLR,0.00,7.00,VWS V14.01,2013-07-22 00:26:00,
2013-07-21 20:31:00,75.9,72.4,29.88,SSW,200,0.0,0.0,89,0.00,,CLR,0.00,0.00,VWS V14.01,2013-07-22 00:31:00,
2013-07-21 20:36:00,75.7,72.2,29.88,SSW,200,0.0,0.0,89,0.00,,CLR,0.00,0.00,VWS V14.01,2013-07-22 00:36:00,
2013-07-21 20:41:00,75.5,72.0,29.88,SSW,200,0.0,0.0,89,0.00,,CLR,0.00,0.00,VWS V14.01,2013-07-22 00:41:00,
2013-07-21 20:46:00,75.3,71.8,29.88,SSW,200,0.0,0.0,89,0.00,,CLR,0.00,0.00,VWS V14.01,2013-07-22 00:46:00,
2013-07-21 20:52:00,75.1,72.0,29.88,SSW,201,0.0,0.0,90,0.00,,CLR,0.00,0.00,VWS V14.01,2013-07-22 00:52:00,
2013-07-21 20:57:00,74.9,71.8,29.88,SSW,201,0.0,0.0,90,0.00,,CLR,0.00,0.00,VWS V14.01,2013-07-22 00:57:00,
2013-07-21 21:02:00,74.7,71.6,29.88,SSW,201,0.0,0.0,90,0.00,,CLR,0.00,0.00,VWS V14.01,2013-07-22 01:02:00,
2013-07-21 21:07:00,74.6,71.5,29.88,SSW,201,0.0,0.0,90,0.00,,CLR,0.00,0.00,VWS V14.01,2013-07-22 01:07:00,
2013-07-21 21:12:00,74.3,71.2,29.88,SSW,201,0.0,0.0,90,0.00,,CLR,0.00,0.00,VWS V14.01,2013-07-22 01:12:00,
2013-07-21 21:17:00,74.1,71.0,29.88,SSW,201,0.0,0.0,90,0.00,,CLR,0.00,0.00,VWS V14.01,2013-07-22 01:17:00,
2013-07-21 21:22:00,74.0,70.9,29.88,SSW,201,0.0,0.0,90,0.00,,CLR,0.00,0.00,VWS V14.01,2013-07-22 01:22:00,
2013-07-21 21:27:00,73.9,71.1,29.88,SSW,201,0.0,0.0,91,0.00,,CLR,0.00,0.00,VWS V14.01,2013-07-22 01:27:00,
2013-07-21 21:32:00,73.7,70.9,29.88,SSW,200,0.0,0.0,91,0.00,,CLR,0.00,0.00,VWS V14.01,2013-07-22 01:32:00,
2013-07-21 21:38:00,73.6,71.1,29.88,SSW,200,0.0,0.0,92,0.00,,CLR,0.00,0.00,VWS V14.01,2013-07-22 01:38:00,
2013-07-21 21:43:00,73.4,70.9,29.88,SSW,200,0.0,0.0,92,0.00,,CLR,0.00,0.00,VWS V14.01,2013-07-22 01:43:00,
2013-07-21 21:48:00,73.3,70.8,29.88,SSW,200,0.0,0.0,92,0.00,,CLR,0.00,0.00,VWS V14.01,2013-07-22 01:48:00,
2013-07-21 21:53:00,73.1,70.6,29.89,SSW,201,0.0,0.0,92,0.00,,CLR,0.00,0.00,VWS V14.01,2013-07-22 01:53:00,
2013-07-21 21:58:00,73.0,70.9,29.89,SSW,201,0.0,0.0,93,0.00,,CLR,0.00,0.00,VWS V14.01,2013-07-22 01:58:00,
2013-07-21 22:03:00,72.9,70.8,29.89,SSW,201,0.0,0.0,93,0.00,,CLR,0.00,0.00,VWS V14.01,2013-07-22 02:03:00,
2013-07-21 22:08:00,72.8,70.7,29.89,SSW,200,0.0,0.0,93,0.00,,CLR,0.00,0.00,VWS V14.01,2013-07-22 02:08:00,
2013-07-21 22:13:00,72.7,70.6,29.89,SSW,201,0.0,0.0,93,0.00,,CLR,0.00,0.00,VWS V14.01,2013-07-22 02:13:00,
2013-07-21 22:18:00,72.5,70.4,29.89,SSW,201,0.0,0.0,93,0.00,,CLR,0.00,0.00,VWS V14.01,2013-07-22 02:18:00,
2013-07-21 22:24:00,72.4,70.3,29.89,SSW,201,0.0,0.0,93,0.00,,CLR,0.00,0.00,VWS V14.01,2013-07-22 02:24:00,
2013-07-21 22:29:00,72.3,70.2,29.90,SSW,201,0.0,0.0,93,0.00,,CLR,0.00,0.00,VWS V14.01,2013-07-22 02:29:00,
2013-07-21 22:34:00,72.3,70.5,29.89,SSW,201,0.0,0.0,94,0.00,,CLR,0.00,0.00,VWS V14.01,2013-07-22 02:34:00,
2013-07-21 22:39:00,72.2,70.4,29.90,SSW,201,0.0,0.0,94,0.00,,CLR,0.00,0.00,VWS V14.01,2013-07-22 02:39:00,
2013-07-21 22:44:00,72.1,70.3,29.90,SSW,201,0.0,0.0,94,0.00,,CLR,0.00,0.00,VWS V14.01,2013-07-22 02:44:00,
2013-07-21 22:49:00,72.0,70.2,29.90,SSW,201,0.0,0.0,94,0.00,,CLR,0.00,0.00,VWS V14.01,2013-07-22 02:49:00,
2013-07-21 22:54:00,71.9,70.1,29.90,SSW,201,0.0,0.0,94,0.00,,CLR,0.00,0.00,VWS V14.01,2013-07-22 02:54:00,
2013-07-21 22:59:00,71.7,69.9,29.90,SSW,201,0.0,0.0,94,0.00,,CLR,0.00,0.00,VWS V14.01,2013-07-22 02:59:00,
2013-07-21 23:04:00,71.7,70.2,29.90,SSW,200,0.0,0.0,95,0.00,,CLR,0.00,0.00,VWS V14.01,2013-07-22 03:04:00,
2013-07-21 23:09:00,71.7,70.2,29.90,SSW,201,0.0,0.0,95,0.00,,CLR,0.00,0.00,VWS V14.01,2013-07-22 03:09:00,
2013-07-21 23:14:00,71.7,70.2,29.91,SSW,201,0.0,0.0,95,0.00,,CLR,0.00,0.00,VWS V14.01,2013-07-22 03:14:00,
2013-07-21 23:19:00,71.6,70.1,29.91,SSW,200,0.0,0.0,95,0.00,,CLR,0.00,0.00,VWS V14.01,2013-07-22 03:19:00,
2013-07-21 23:24:00,71.6,70.1,29.91,SSW,201,0.0,0.0,95,0.00,,CLR,0.00,0.00,VWS V14.01,2013-07-22 03:24:00,
2013-07-21 23:29:00,71.6,70.4,29.91,SSW,201,0.0,0.0,96,0.00,,CLR,0.00,0.00,VWS V14.01,2013-07-22 03:29:00,
2013-07-21 23:34:00,71.5,70.0,29.91,SSW,201,0.0,0.0,95,0.00,,CLR,0.00,0.00,VWS V14.01,2013-07-22 03:34:00,
2013-07-21 23:39:00,71.4,69.9,29.91,SSW,201,0.0,0.0,95,0.00,,CLR,0.00,0.00,VWS V14.01,2013-07-22 03:39:00,
2013-07-21 23:44:00,71.3,70.1,29.90,SSW,200,0.0,0.0,96,0.00,,CLR,0.00,0.00,VWS V14.01,2013-07-22 03:44:00,
2013-07-21 23:49:00,71.3,70.1,29.91,SSW,201,0.0,0.0,96,0.00,,CLR,0.00,0.00,VWS V14.01,2013-07-22 03:49:00,
2013-07-21 23:54:00,71.2,70.0,29.90,SSW,201,0.0,0.0,96,0.00,,CLR,0.00,0.00,VWS V14.01,2013-07-22 03:54:00,
2013-07-21 23:59:00,71.1,69.9,29.91,SSW,200,0.0,0.0,96,0.00,,CLR,0.00,0.00,VWS V14.01,2013-07-22 03:59:00,